New Richmond, WI

8:49 AM CST on December 15, 2017 (GMT -0600)
New Richmond Municipal

Weather History for KRNH - January, 2014

Change the Weather History Date:

Saturday, January 25, 2014

  Actual Average (KSTP) Record (KSTP)
Temperature  
Mean Temperature 10 °F -  
Max Temperature 21 °F 22 °F 46 °F (2002)
Min Temperature 0 °F 8 °F -11 °F (1997)
Degree Days  
Heating Degree Days 54    
Moisture  
Dew Point -8 °F    
Average Humidity 55    
Maximum Humidity 84    
Minimum Humidity 43    
Precipitation  
Precipitation 0.00 in - - ()
Sea Level Pressure  
Sea Level Pressure 29.73 in    
Wind  
Wind Speed 15 mph (WNW)    
Max Wind Speed 24 mph    
Max Gust Speed 39 mph    
Visibility 9 miles    
Events Snow    
Averages and records for this station are not official NWS values.
T = Trace of Precipitation, MM = Missing Value Source: NWS Daily Summary

Daily Weather History Graph

Daily Weather History Graph

Search for Another Location

Airport or City:

Trip Planner

Search our weather history database for the weather conditions in past years. The results will help you decide how hot, cold, wet, or windy it might be!

Date:

Astronomy

Jan. 25, 2014 Rise Set
Actual Time 7:37 AM CST 5:07 PM CST
Civil Twilight 7:05 AM CST 5:39 PM CST
Nautical Twilight 6:29 AM CST 6:15 PM CST
Astronomical Twilight 5:55 AM CST 6:50 PM CST
Moon 2:09 AM CST (1/25) 12:09 PM CST (1/25)
Length of Visible Light 10h 34m
Length of Day
9h 30m
Waning Crescent, 34% of the Moon is Illuminated
Jan 25
Waning Crescent
Jan 30
New
Feb 6
First Quarter
Feb 14
Full
Feb 22
Last Quarter

Hourly Weather History & Observations

Time (CST) Temp. Windchill Dew Point Humidity Pressure Visibility Wind Dir Wind Speed Gust Speed Precip Events Conditions
12:15 AM 21.2 °F 9.5 °F 9.9 °F 62% 29.52 in 10.0 mi NNW 11.5 mph - N/A   Clear
12:35 AM 20.1 °F 4.6 °F 5.0 °F 52% 29.53 in 7.0 mi NW 19.6 mph 25.3 mph N/A   Clear
12:55 AM 18.0 °F 1.7 °F 0.5 °F 47% 29.54 in 10.0 mi NW 19.6 mph 28.8 mph N/A   Clear
1:15 AM 17.2 °F 3.3 °F 1.4 °F 50% 29.55 in 10.0 mi NW 13.8 mph 25.3 mph N/A   Clear
1:35 AM 16.2 °F 0.8 °F -0.9 °F 47% 29.56 in 10.0 mi NW 16.1 mph 23.0 mph N/A   Clear
1:55 AM 14.9 °F -1.8 °F -3.6 °F 44% 29.57 in 10.0 mi NW 18.4 mph 21.9 mph N/A   Clear
2:15 AM 14.0 °F -4.3 °F -4.7 °F 43% 29.59 in 7.0 mi NW 21.9 mph 29.9 mph N/A   Clear
2:35 AM 11.8 °F -5.8 °F -4.9 °F 47% 29.62 in 10.0 mi NNW 18.4 mph - N/A   Clear
2:55 AM 10.9 °F -4.1 °F -6.0 °F 47% 29.62 in 10.0 mi NW 12.7 mph - N/A   Clear
3:15 AM 9.0 °F -11.8 °F -5.4 °F 52% 29.65 in 3.0 mi NNW 24.2 mph 39.1 mph N/A   Haze
3:35 AM 7.7 °F -12.6 °F -6.0 °F 54% 29.65 in 4.0 mi NNW 21.9 mph 33.4 mph N/A   Haze
3:55 AM 7.0 °F -14.5 °F -6.5 °F 54% 29.66 in 5.0 mi NNW 24.2 mph 33.4 mph N/A   Haze
4:15 AM 6.6 °F -13.6 °F -7.8 °F 52% 29.68 in 10.0 mi NNW 20.7 mph 27.6 mph N/A   Clear
4:35 AM 5.2 °F -15.0 °F -7.6 °F 56% 29.69 in 10.0 mi NW 19.6 mph 24.2 mph N/A   Clear
4:55 AM 4.1 °F -14.7 °F -7.8 °F 58% 29.70 in 10.0 mi NW 16.1 mph 21.9 mph N/A   Clear
5:15 AM 3.9 °F -16.1 °F -8.5 °F 56% 29.71 in 7.0 mi NW 18.4 mph - N/A   Clear
5:35 AM 3.0 °F -18.3 °F -9.4 °F 56% 29.72 in 10.0 mi NW 20.7 mph 25.3 mph N/A   Clear
5:55 AM 2.8 °F -17.5 °F -9.4 °F 57% 29.74 in 10.0 mi NNW 18.4 mph 23.0 mph N/A   Clear
6:15 AM 2.5 °F -18.0 °F -9.4 °F 58% 29.74 in 10.0 mi NNW 18.4 mph 25.3 mph N/A   Clear
6:35 AM 1.9 °F -18.7 °F -9.8 °F 58% 29.75 in 10.0 mi NNW 18.4 mph 25.3 mph N/A   Clear
6:55 AM 1.4 °F -18.2 °F -9.9 °F 59% 29.76 in 10.0 mi NW 16.1 mph 24.2 mph N/A   Clear
7:15 AM 1.4 °F -16.9 °F -10.3 °F 58% 29.77 in 10.0 mi NW 13.8 mph 21.9 mph N/A   Clear
7:35 AM 0.1 °F -18.5 °F -10.5 °F 61% 29.78 in 10.0 mi NW 13.8 mph - N/A   Clear
7:55 AM -0.2 °F -20.3 °F -10.8 °F 61% 29.79 in 10.0 mi NW 16.1 mph 20.7 mph N/A   Clear
8:15 AM 0.5 °F -18.7 °F -11.2 °F 58% 29.79 in 10.0 mi NW 15.0 mph 20.7 mph N/A   Clear
8:35 AM 0.9 °F -18.3 °F -10.8 °F 58% 29.81 in 10.0 mi NW 15.0 mph 23.0 mph N/A   Clear
8:55 AM 1.4 °F -18.8 °F -11.2 °F 56% 29.81 in 10.0 mi NW 17.3 mph 21.9 mph N/A   Clear
9:15 AM 1.6 °F -18.6 °F -11.2 °F 55% 29.82 in 10.0 mi NW 17.3 mph 20.7 mph N/A   Clear
9:35 AM 2.3 °F -16.4 °F -11.2 °F 53% 29.82 in 10.0 mi NW 15.0 mph 24.2 mph N/A   Clear
9:55 AM 2.3 °F -17.7 °F -11.2 °F 53% 29.83 in 10.0 mi WNW 17.3 mph 25.3 mph N/A   Clear
10:15 AM 2.3 °F -17.1 °F -11.0 °F 54% 29.83 in 10.0 mi NW 16.1 mph 25.3 mph N/A   Clear
10:35 AM 2.3 °F -18.2 °F -10.3 °F 56% 29.85 in 5.0 mi NW 18.4 mph 26.5 mph N/A   Haze
10:55 AM 3.0 °F -17.8 °F -10.8 °F 53% 29.85 in 10.0 mi NW 19.6 mph 24.2 mph N/A   Clear
11:15 AM 3.2 °F -17.1 °F -11.0 °F 52% 29.84 in 10.0 mi NW 18.4 mph 24.2 mph N/A   Clear
11:35 AM 3.9 °F -16.1 °F -10.5 °F 51% 29.84 in 10.0 mi NW 18.4 mph 26.5 mph N/A   Clear
11:55 AM 4.1 °F -16.4 °F -10.8 °F 50% 29.84 in 7.0 mi WNW 19.6 mph 26.5 mph N/A   Clear
12:15 PM 4.1 °F -16.4 °F -10.3 °F 51% 29.83 in 7.0 mi WNW 19.6 mph 23.0 mph N/A   Clear
12:35 PM 5.0 °F -13.6 °F -11.0 °F 48% 29.82 in 10.0 mi NW 16.1 mph 21.9 mph N/A   Clear
12:55 PM 5.0 °F -13.0 °F -11.6 °F 46% 29.82 in 10.0 mi NW 15.0 mph 24.2 mph N/A   Clear
1:15 PM 5.7 °F -12.0 °F -11.6 °F 45% 29.83 in 10.0 mi WNW 15.0 mph 18.4 mph N/A   Clear
1:35 PM 5.7 °F -12.0 °F -11.7 °F 45% 29.82 in 10.0 mi WNW 15.0 mph - N/A   Clear
1:55 PM 5.7 °F -13.8 °F -11.7 °F 45% 29.81 in 10.0 mi WNW 18.4 mph - N/A   Clear
2:15 PM 5.5 °F -13.5 °F -11.2 °F 46% 29.80 in 10.0 mi West 17.3 mph - N/A   Clear
2:35 PM 5.5 °F -12.3 °F -11.6 °F 45% 29.81 in 10.0 mi WNW 15.0 mph - N/A   Clear
2:55 PM 5.2 °F -13.9 °F -11.9 °F 45% 29.81 in 10.0 mi WNW 17.3 mph - N/A   Clear
3:15 PM 5.5 °F -11.6 °F -12.3 °F 44% 29.81 in 10.0 mi WNW 13.8 mph - N/A   Clear
3:35 PM 5.0 °F -11.6 °F -11.9 °F 46% 29.81 in 10.0 mi West 12.7 mph 17.3 mph N/A   Clear
3:55 PM 4.8 °F -11.8 °F -11.6 °F 47% 29.81 in 10.0 mi West 12.7 mph - N/A   Clear
4:15 PM 3.9 °F -13.0 °F -11.9 °F 48% 29.82 in 10.0 mi West 12.7 mph - N/A   Clear
4:35 PM 3.2 °F -13.1 °F -12.3 °F 49% 29.81 in 10.0 mi West 11.5 mph - N/A   Clear
4:55 PM 2.5 °F -12.2 °F -12.1 °F 51% 29.81 in 10.0 mi West 9.2 mph - N/A   Clear
5:15 PM 2.7 °F -12.0 °F -11.6 °F 52% 29.80 in 10.0 mi West 9.2 mph - N/A   Clear
5:35 PM 1.8 °F -9.5 °F -11.7 °F 53% 29.79 in 10.0 mi West 5.8 mph - N/A   Clear
5:55 PM 1.0 °F -10.3 °F -12.1 °F 54% 29.80 in 10.0 mi West 5.8 mph - N/A   Clear
6:15 PM 1.2 °F -8.5 °F -12.1 °F 54% 29.79 in 10.0 mi WSW 4.6 mph - N/A   Scattered Clouds
6:35 PM 0.3 °F -11.2 °F -11.6 °F 57% 29.77 in 10.0 mi WSW 5.8 mph - N/A   Scattered Clouds
6:55 PM 0.5 °F -9.3 °F -11.2 °F 58% 29.75 in 10.0 mi SW 4.6 mph - N/A   Scattered Clouds
7:15 PM 1.9 °F -9.2 °F -9.8 °F 58% 29.75 in 10.0 mi WSW 5.8 mph - N/A   Mostly Cloudy
7:35 PM 2.8 °F -9.5 °F -9.0 °F 58% 29.74 in 10.0 mi WSW 6.9 mph - N/A   Overcast
7:55 PM 3.2 °F -9.1 °F -9.6 °F 55% 29.74 in 10.0 mi WSW 6.9 mph - N/A   Overcast
8:15 PM 3.2 °F -9.1 °F -9.8 °F 55% 29.73 in 10.0 mi WSW 6.9 mph - N/A   Overcast
9:15 PM 3.7 °F -5.5 °F -9.0 °F 55% 29.67 in 10.0 mi SSW 4.6 mph - N/A   Overcast
9:35 PM 3.7 °F -7.1 °F -8.5 °F 57% 29.66 in 10.0 mi South 5.8 mph - N/A   Overcast
9:55 PM 3.2 °F -9.1 °F -4.2 °F 71% 29.64 in 2.5 mi South 6.9 mph - N/A Snow Light Snow
10:15 PM 2.8 °F -8.2 °F -2.6 °F 78% 29.62 in 2.5 mi South 5.8 mph - N/A Snow Light Snow
10:35 PM 2.8 °F -6.6 °F -2.0 °F 80% 29.60 in 1.2 mi SSE 4.6 mph - N/A Snow Light Snow
10:55 PM 2.7 °F -8.4 °F -1.7 °F 82% 29.57 in 1.8 mi SE 5.8 mph - N/A Snow Light Snow
11:15 PM 2.7 °F -6.8 °F -1.5 °F 83% 29.57 in 1.5 mi SE 4.6 mph - N/A Snow Light Snow
11:35 PM 2.8 °F -8.2 °F -1.3 °F 83% 29.56 in 1.8 mi SE 5.8 mph - N/A Snow Light Snow
11:55 PM 2.8 °F -4.6 °F -1.1 °F 84% 29.56 in 1.0 mi SE 3.5 mph - N/A Snow Snow